ETD404 OMAA-VTBS

Flight info

Callsign ETD404
Flight time N/A
Altitude 35000
Route KANIP N318 GEVED N881 RASKI L639 AAE N895 NNP L524 SANUG/N0437F370 L524 IBETO WILLA1C
Aircraft A21N/M-SDE2E3FGHIRWXY/LB1

Departure

Time 2026-04-27 15:10
Airport Zayed International Airport (OMAA)

Arrival

Time N/A
Airport Suvarnabhumi Airport (VTBS)
Time Latitude Longitude Altitude Speed Heading
2026-04-27 14:43 24.44594 54.64541 97 ft 0 kts 232°
2026-04-27 14:54 24.44595 54.64541 97 ft 0 kts 232°
2026-04-27 14:57 24.44606 54.64557 98 ft 4 kts 233°
2026-04-27 14:57 24.44622 54.64581 97 ft 4 kts 231°
2026-04-27 14:57 24.44640 54.64602 99 ft 4 kts 212°
2026-04-27 14:57 24.44661 54.64607 97 ft 4 kts 156°
2026-04-27 14:58 24.44679 54.64593 97 ft 1 kts 133°
2026-04-27 14:58 24.44682 54.64590 97 ft 1 kts 133°
2026-04-27 14:59 24.44682 54.64589 97 ft 0 kts 133°
2026-04-27 15:01 24.44680 54.64591 97 ft 1 kts 133°
2026-04-27 15:01 24.44668 54.64606 98 ft 4 kts 133°
2026-04-27 15:01 24.44639 54.64641 98 ft 10 kts 127°
2026-04-27 15:02 24.44586 54.64724 97 ft 5 kts 112°
2026-04-27 15:02 24.44554 54.64734 98 ft 6 kts 188°
2026-04-27 15:02 24.44511 54.64702 99 ft 9 kts 220°
2026-04-27 15:02 24.44458 54.64654 98 ft 11 kts 219°
2026-04-27 15:03 24.44389 54.64596 99 ft 14 kts 218°
2026-04-27 15:03 24.44310 54.64528 99 ft 15 kts 218°
2026-04-27 15:03 24.44217 54.64527 100 ft 16 kts 130°
2026-04-27 15:03 24.44147 54.64626 99 ft 17 kts 127°
2026-04-27 15:04 24.44100 54.64694 99 ft 17 kts 128°
2026-04-27 15:04 24.44025 54.64800 99 ft 18 kts 128°
2026-04-27 15:04 24.43933 54.64851 97 ft 17 kts 213°
2026-04-27 15:04 24.43834 54.64838 96 ft 17 kts 126°
2026-04-27 15:05 24.43760 54.64946 98 ft 18 kts 128°
2026-04-27 15:05 24.43681 54.65057 97 ft 19 kts 128°
2026-04-27 15:05 24.43599 54.65172 97 ft 19 kts 128°
2026-04-27 15:05 24.43515 54.65290 96 ft 20 kts 128°
2026-04-27 15:06 24.43427 54.65411 96 ft 21 kts 128°
2026-04-27 15:06 24.43338 54.65537 100 ft 21 kts 128°
2026-04-27 15:06 24.43246 54.65666 97 ft 22 kts 128°
2026-04-27 15:06 24.43152 54.65799 96 ft 22 kts 128°
2026-04-27 15:07 24.43055 54.65936 96 ft 23 kts 128°
2026-04-27 15:07 24.42956 54.66076 98 ft 24 kts 128°
2026-04-27 15:07 24.42853 54.66221 96 ft 24 kts 128°
2026-04-27 15:07 24.42747 54.66369 98 ft 25 kts 128°
2026-04-27 15:08 24.42638 54.66522 97 ft 26 kts 128°
2026-04-27 15:08 24.42526 54.66680 96 ft 27 kts 128°
2026-04-27 15:08 24.42437 54.66805 99 ft 14 kts 128°
2026-04-27 15:08 24.42368 54.66861 96 ft 12 kts 185°
2026-04-27 15:09 24.42296 54.66811 94 ft 13 kts 220°
2026-04-27 15:09 24.42227 54.66749 89 ft 13 kts 218°
2026-04-27 15:09 24.42187 54.66699 87 ft 6 kts 289°
2026-04-27 15:09 24.42216 54.66653 92 ft 13 kts 308°
2026-04-27 15:10 24.42420 54.66366 92 ft 83 kts 309°
2026-04-27 15:10 24.42910 54.65677 93 ft 144 kts 308°
2026-04-27 15:10 24.43605 54.64695 269 ft 171 kts 307°
2026-04-27 15:10 24.44331 54.63672 861 ft 170 kts 308°
2026-04-27 15:11 24.45060 54.62635 1401 ft 178 kts 309°
2026-04-27 15:11 24.45981 54.61683 1785 ft 189 kts 333°
2026-04-27 15:11 24.47314 54.61454 2188 ft 206 kts
2026-04-27 15:11 24.48705 54.62084 2507 ft 229 kts 29°
2026-04-27 15:12 24.50044 54.63112 3017 ft 240 kts 31°
2026-04-27 15:12 24.51393 54.64227 3648 ft 246 kts 32°
2026-04-27 15:12 24.52736 54.65436 4209 ft 259 kts 42°
2026-04-27 15:12 24.53684 54.67200 4634 ft 280 kts 70°
2026-04-27 15:13 24.53785 54.69366 5218 ft 293 kts 98°
2026-04-27 15:13 24.53010 54.71459 5847 ft 300 kts 117°
2026-04-27 15:13 24.51951 54.73450 6502 ft 303 kts 118°
2026-04-27 15:13 24.50875 54.75455 7103 ft 306 kts 118°
2026-04-27 15:14 24.49814 54.77496 7733 ft 310 kts 117°
2026-04-27 15:14 24.48761 54.79574 8379 ft 313 kts 117°
2026-04-27 15:14 24.47709 54.81678 9029 ft 316 kts 117°
2026-04-27 15:14 24.46645 54.83806 9659 ft 319 kts 117°
2026-04-27 15:15 24.45574 54.85956 10212 ft 325 kts 117°
2026-04-27 15:15 24.44467 54.88183 10527 ft 340 kts 118°
2026-04-27 15:15 24.43302 54.90513 10780 ft 357 kts 118°
2026-04-27 15:15 24.42092 54.92934 11263 ft 365 kts 118°
2026-04-27 15:16 24.40873 54.95383 11899 ft 367 kts 119°
2026-04-27 15:16 24.39651 54.97843 12564 ft 368 kts 119°
2026-04-27 15:16 24.38420 55.00317 13227 ft 370 kts 120°
2026-04-27 15:16 24.37186 55.02791 13851 ft 371 kts 120°
2026-04-27 15:17 24.35941 55.05285 14374 ft 374 kts 120°
2026-04-27 15:17 24.34685 55.07798 14859 ft 378 kts 120°
2026-04-27 15:17 24.33416 55.10339 15347 ft 382 kts 120°
2026-04-27 15:17 24.32136 55.12907 15838 ft 386 kts 120°
2026-04-27 15:18 24.30841 55.15501 16324 ft 390 kts 120°
2026-04-27 15:18 24.29532 55.18120 16820 ft 394 kts 121°
2026-04-27 15:18 24.28210 55.20765 17303 ft 398 kts 121°
2026-04-27 15:18 24.26872 55.23436 17782 ft 402 kts 121°
2026-04-27 15:19 24.25521 55.26132 18236 ft 405 kts 121°
2026-04-27 15:19 24.24160 55.28849 18675 ft 408 kts 121°
2026-04-27 15:19 24.22788 55.31584 19115 ft 411 kts 121°
2026-04-27 15:19 24.21408 55.34334 19563 ft 413 kts 121°
2026-04-27 15:20 24.20019 55.37103 20001 ft 415 kts 121°
2026-04-27 15:20 24.18624 55.39881 20450 ft 417 kts 121°
2026-04-27 15:20 24.17252 55.42614 20770 ft 420 kts 121°
2026-04-27 15:20 24.15808 55.45482 20841 ft 421 kts 121°
2026-04-27 15:21 24.14396 55.48288 20855 ft 421 kts 121°
2026-04-27 15:21 24.12982 55.51096 21166 ft 423 kts 121°
2026-04-27 15:21 24.11558 55.53921 21636 ft 425 kts 121°
2026-04-27 15:21 24.10128 55.56756 22110 ft 427 kts 121°
2026-04-27 15:22 24.08686 55.59612 22579 ft 429 kts 121°
2026-04-27 15:22 24.07238 55.62474 23030 ft 432 kts 121°
2026-04-27 15:22 24.05800 55.65372 23456 ft 435 kts 120°
2026-04-27 15:22 24.04400 55.68311 23803 ft 437 kts 120°
2026-04-27 15:23 24.02991 55.71274 24136 ft 440 kts 120°
2026-04-27 15:23 24.01569 55.74261 24467 ft 444 kts 120°
2026-04-27 15:23 24.00140 55.77263 24788 ft 447 kts 120°
2026-04-27 15:23 23.98700 55.80283 25121 ft 450 kts 119°
2026-04-27 15:24 23.97247 55.83328 25465 ft 453 kts 119°
2026-04-27 15:24 23.95786 55.86391 25796 ft 456 kts 120°
2026-04-27 15:24 23.94314 55.89472 26126 ft 459 kts 120°
2026-04-27 15:24 23.92833 55.92570 26445 ft 462 kts 120°
2026-04-27 15:25 23.91343 55.95686 26742 ft 464 kts 120°
2026-04-27 15:25 23.89839 55.98818 27034 ft 467 kts 120°
2026-04-27 15:25 23.88324 56.01971 27319 ft 469 kts 120°
2026-04-27 15:25 23.86808 56.05136 27581 ft 472 kts 120°
2026-04-27 15:26 23.85283 56.08321 27856 ft 475 kts 120°
2026-04-27 15:26 23.83747 56.11517 28128 ft 476 kts 120°
2026-04-27 15:26 23.82207 56.14728 28412 ft 478 kts 120°
2026-04-27 15:26 23.80662 56.17954 28659 ft 481 kts 119°
2026-04-27 15:27 23.79107 56.21204 28906 ft 484 kts 120°
2026-04-27 15:27 23.77539 56.24469 29141 ft 487 kts 120°
2026-04-27 15:27 23.75958 56.27757 29395 ft 489 kts 120°
2026-04-27 15:27 23.74372 56.31051 29666 ft 492 kts 120°
2026-04-27 15:28 23.72774 56.34359 29891 ft 494 kts 120°
2026-04-27 15:28 23.71169 56.37681 30090 ft 496 kts 120°
2026-04-27 15:28 23.69558 56.41016 30291 ft 498 kts 120°
2026-04-27 15:28 23.67939 56.44368 30468 ft 500 kts 119°
2026-04-27 15:29 23.66320 56.47721 30692 ft 501 kts 119°
2026-04-27 15:29 23.64689 56.51094 30898 ft 503 kts 119°
2026-04-27 15:29 23.63055 56.54471 31089 ft 504 kts 119°
2026-04-27 15:29 23.61413 56.57857 31282 ft 506 kts 119°
2026-04-27 15:30 23.59765 56.61256 31481 ft 508 kts 119°
2026-04-27 15:30 23.58113 56.64663 31657 ft 509 kts 119°
2026-04-27 15:30 23.56455 56.68080 31857 ft 510 kts 119°
2026-04-27 15:30 23.54792 56.71504 32087 ft 511 kts 118°
2026-04-27 15:31 23.53130 56.74923 32319 ft 510 kts 118°
2026-04-27 15:31 23.51468 56.78340 32536 ft 511 kts 118°
2026-04-27 15:31 23.49807 56.81757 32776 ft 510 kts 118°
2026-04-27 15:31 23.48148 56.85161 33046 ft 508 kts 118°
2026-04-27 15:32 23.46493 56.88556 33302 ft 507 kts 118°
2026-04-27 15:32 23.44841 56.91945 33501 ft 507 kts 118°
2026-04-27 15:32 23.43186 56.95334 33680 ft 507 kts 118°
2026-04-27 15:32 23.41529 56.98727 33881 ft 506 kts 118°
2026-04-27 15:33 23.39873 57.02110 34060 ft 506 kts 118°
2026-04-27 15:33 23.38219 57.05487 34245 ft 505 kts 118°
2026-04-27 15:33 23.36629 57.08897 34407 ft 505 kts 116°
2026-04-27 15:33 23.35079 57.12324 34541 ft 505 kts 117°
2026-04-27 15:34 23.31969 57.19199 34700 ft 507 kts 116°
2026-04-27 15:34 23.30409 57.22639 34830 ft 507 kts 117°
2026-04-27 15:34 23.28846 57.26080 34905 ft 506 kts 117°
2026-04-27 15:35 23.25733 57.32936 34883 ft 504 kts 117°
2026-04-27 15:35 23.22624 57.39761 34859 ft 503 kts 116°
2026-04-27 15:36 23.19510 57.46585 34871 ft 504 kts 116°
2026-04-27 15:36 23.16399 57.53398 34862 ft 503 kts 116°
2026-04-27 15:37 23.13296 57.60201 34847 ft 499 kts 116°
2026-04-27 15:37 23.10199 57.66969 34846 ft 499 kts 116°
2026-04-27 15:38 23.07109 57.73709 34835 ft 497 kts 116°
2026-04-27 15:38 23.04024 57.80421 34827 ft 498 kts 116°
2026-04-27 15:39 23.01867 57.87524 34817 ft 495 kts 95°
2026-04-27 15:39 23.01711 57.94973 34816 ft 492 kts 87°
2026-04-27 15:40 23.01790 58.02404 34807 ft 492 kts 88°
2026-04-27 15:40 23.01804 58.09841 34800 ft 492 kts 88°
2026-04-27 15:41 23.01791 58.17222 34798 ft 492 kts 88°
2026-04-27 15:41 23.01778 58.24630 34790 ft 486 kts 88°
2026-04-27 15:42 23.01765 58.32050 34794 ft 487 kts 88°
2026-04-27 15:42 23.01813 58.39363 34792 ft 487 kts 86°
2026-04-27 15:43 23.02065 58.46703 34795 ft 487 kts 86°
2026-04-27 15:43 23.02322 58.54039 34785 ft 487 kts 86°
2026-04-27 15:44 23.02558 58.61386 34780 ft 487 kts 86°
2026-04-27 15:44 23.02760 58.67536 34778 ft 487 kts 86°
2026-04-27 15:45 23.02998 58.74882 34772 ft 485 kts 86°
2026-04-27 15:45 23.03234 58.82209 34760 ft 486 kts 86°
2026-04-27 15:46 23.03464 58.89557 34761 ft 488 kts 86°
2026-04-27 15:46 23.03694 58.96881 34758 ft 486 kts 86°
2026-04-27 15:47 23.03912 59.04227 34766 ft 486 kts 86°
2026-04-27 15:47 23.04131 59.11586 34770 ft 487 kts 86°
2026-04-27 15:48 23.04344 59.18941 34759 ft 488 kts 86°
2026-04-27 15:49 23.04662 59.29984 34748 ft 487 kts 86°
2026-04-27 15:49 23.04869 59.37351 34749 ft 489 kts 86°
2026-04-27 15:50 23.05007 59.44727 34737 ft 489 kts 87°
2026-04-27 15:50 23.05107 59.52123 34729 ft 489 kts 87°
2026-04-27 15:51 23.05215 59.59504 34724 ft 489 kts 87°
2026-04-27 15:51 23.05332 59.66887 34727 ft 486 kts 87°
2026-04-27 15:52 23.05444 59.74244 34730 ft 486 kts 87°
2026-04-27 15:52 23.05542 59.81555 34732 ft 487 kts 87°
2026-04-27 15:53 23.05639 59.88915 34735 ft 488 kts 87°
2026-04-27 15:53 23.05733 59.96269 34734 ft 489 kts 87°
2026-04-27 15:54 23.05822 60.03621 34733 ft 488 kts 87°
2026-04-27 15:54 23.05905 60.10975 34735 ft 488 kts 87°
2026-04-27 15:55 23.05993 60.18334 34746 ft 487 kts 87°
2026-04-27 15:55 23.06076 60.25693 34738 ft 487 kts 87°
2026-04-27 15:56 23.06147 60.33062 34738 ft 487 kts 87°
2026-04-27 15:56 23.06222 60.40437 34738 ft 488 kts 88°
2026-04-27 15:57 23.06284 60.47816 34741 ft 489 kts 87°
2026-04-27 15:57 23.06355 60.55203 34733 ft 490 kts 87°
2026-04-27 15:58 23.06427 60.62588 34734 ft 491 kts 87°
2026-04-27 15:58 23.06488 60.69975 34735 ft 490 kts 87°
2026-04-27 15:59 23.06550 60.77365 34740 ft 489 kts 87°
2026-04-27 15:59 23.06603 60.84749 34737 ft 490 kts 87°
2026-04-27 16:00 23.06648 60.92139 34733 ft 489 kts 87°
2026-04-27 16:00 23.06697 60.99543 34734 ft 488 kts 88°
2026-04-27 16:01 23.06737 61.06930 34733 ft 490 kts 87°
2026-04-27 16:01 23.06780 61.14302 34734 ft 489 kts 87°
2026-04-27 16:02 23.06819 61.21680 34734 ft 489 kts 87°
2026-04-27 16:02 23.06853 61.29053 34732 ft 488 kts 87°
2026-04-27 16:03 23.06883 61.36427 34735 ft 488 kts 87°
2026-04-27 16:03 23.06908 61.43803 34735 ft 488 kts 87°
2026-04-27 16:04 23.06933 61.51181 34735 ft 490 kts 88°
2026-04-27 16:04 23.06950 61.58559 34732 ft 490 kts 87°
2026-04-27 16:05 23.06966 61.65943 34735 ft 490 kts 88°
2026-04-27 16:05 23.06975 61.73323 34731 ft 488 kts 88°
2026-04-27 16:06 23.06984 61.80698 34728 ft 488 kts 88°
2026-04-27 16:06 23.06993 61.88092 34728 ft 488 kts 88°
2026-04-27 16:07 23.06993 61.95463 34738 ft 488 kts 88°
2026-04-27 16:07 23.06990 62.02842 34738 ft 488 kts 88°
2026-04-27 16:08 23.06984 62.10178 34735 ft 489 kts 88°
2026-04-27 16:08 23.06965 62.17555 34735 ft 489 kts 88°
2026-04-27 16:09 23.06946 62.24930 34734 ft 488 kts 88°
2026-04-27 16:09 23.06915 62.35999 34731 ft 489 kts 88°
2026-04-27 16:10 23.06876 62.50813 34730 ft 488 kts 88°
2026-04-27 16:11 23.06829 62.61844 34733 ft 487 kts 88°
2026-04-27 16:12 23.06780 62.72846 34736 ft 484 kts 88°
2026-04-27 16:13 23.06727 62.83831 34737 ft 485 kts 89°
2026-04-27 16:13 23.06662 62.94812 34734 ft 485 kts 89°
2026-04-27 16:14 23.06562 63.09461 34734 ft 483 kts 89°
2026-04-27 16:15 23.06452 63.24077 34737 ft 483 kts 89°
2026-04-27 16:16 23.06330 63.38692 34735 ft 484 kts 89°
2026-04-27 16:17 23.06200 63.53274 34734 ft 483 kts 89°
2026-04-27 16:18 23.06046 63.67840 34731 ft 483 kts 89°
2026-04-27 16:19 23.05968 63.75074 34740 ft 483 kts 89°
2026-04-27 16:20 23.05544 63.89632 34737 ft 485 kts 95°
2026-04-27 16:21 23.04431 64.00517 34737 ft 484 kts 95°
2026-04-27 16:22 23.02936 64.15009 34737 ft 483 kts 96°
2026-04-27 16:22 23.01810 64.25888 34744 ft 483 kts 96°
2026-04-27 16:23 23.00689 64.36757 34743 ft 483 kts 96°
2026-04-27 16:24 22.99929 64.44016 34744 ft 483 kts 96°
2026-04-27 16:25 22.98412 64.58518 34744 ft 484 kts 96°
2026-04-27 16:26 22.96876 64.73028 34739 ft 483 kts 96°
2026-04-27 16:27 22.95782 64.86315 34741 ft 483 kts 89°
2026-04-27 16:28 22.95906 65.04521 34742 ft 484 kts 89°
2026-04-27 16:29 22.95993 65.22752 34742 ft 483 kts 89°
2026-04-27 16:30 22.96047 65.37321 34747 ft 483 kts 89°
2026-04-27 16:31 22.96097 65.55529 34743 ft 483 kts 89°
2026-04-27 16:32 22.96114 65.66452 34741 ft 483 kts 89°
2026-04-27 16:33 22.96130 65.77380 34744 ft 482 kts 89°
2026-04-27 16:33 22.96127 65.84653 34745 ft 482 kts 89°
2026-04-27 16:34 22.96129 65.91923 34745 ft 483 kts 89°
2026-04-27 16:34 22.96125 65.99195 34750 ft 483 kts 89°
2026-04-27 16:35 22.96123 66.06477 34750 ft 483 kts 89°
2026-04-27 16:36 22.96113 66.17389 34749 ft 482 kts 89°
2026-04-27 16:36 22.96098 66.24667 34750 ft 483 kts 89°
2026-04-27 16:37 22.96080 66.31903 34747 ft 483 kts 89°
2026-04-27 16:37 22.96060 66.39232 34750 ft 483 kts 89°
2026-04-27 16:38 22.96036 66.46510 34748 ft 483 kts 89°
2026-04-27 16:38 22.96008 66.53804 34754 ft 483 kts 89°
2026-04-27 16:39 22.95976 66.61086 34751 ft 482 kts 89°
2026-04-27 16:39 22.95940 66.68372 34754 ft 483 kts 89°
2026-04-27 16:40 22.95905 66.75614 34755 ft 483 kts 89°
2026-04-27 16:40 22.95862 66.82898 34752 ft 483 kts 89°
2026-04-27 16:41 22.95819 66.90192 34761 ft 483 kts 89°
2026-04-27 16:41 22.95769 66.97483 34756 ft 483 kts 89°
2026-04-27 16:42 22.95779 67.04773 34750 ft 483 kts 89°
2026-04-27 16:42 22.95802 67.12050 34745 ft 482 kts 89°
2026-04-27 16:43 22.95807 67.19323 34755 ft 482 kts 89°
2026-04-27 16:43 22.95807 67.26594 34756 ft 482 kts 89°
2026-04-27 16:44 22.95817 67.33862 34751 ft 482 kts 89°
2026-04-27 16:44 22.95812 67.41136 34753 ft 482 kts 89°
2026-04-27 16:45 22.95808 67.48412 34756 ft 482 kts 89°
2026-04-27 16:45 22.95819 67.55683 34760 ft 481 kts 89°
2026-04-27 16:46 22.95814 67.62949 34762 ft 481 kts 89°
2026-04-27 16:46 22.95808 67.70213 34761 ft 482 kts 89°
2026-04-27 16:47 22.95799 67.77473 34757 ft 481 kts 89°
2026-04-27 16:47 22.95782 67.84743 34758 ft 481 kts 89°
2026-04-27 16:48 22.95771 67.92005 34762 ft 482 kts 89°
2026-04-27 16:48 22.95785 67.99281 34761 ft 482 kts 89°
2026-04-27 16:49 22.95768 68.10202 34758 ft 483 kts 89°
2026-04-27 16:49 22.95761 68.17476 34758 ft 483 kts 89°
2026-04-27 16:50 22.95761 68.24747 34761 ft 482 kts 89°
2026-04-27 16:50 22.95761 68.32017 34763 ft 481 kts 89°
2026-04-27 16:51 22.95666 68.39285 34767 ft 482 kts 92°
2026-04-27 16:51 22.95261 68.46549 34767 ft 482 kts 93°
2026-04-27 16:52 22.94837 68.53787 34768 ft 480 kts 93°
2026-04-27 16:52 22.94419 68.61017 34769 ft 481 kts 93°
2026-04-27 16:53 22.93998 68.68252 34767 ft 481 kts 93°
2026-04-27 16:53 22.93575 68.75443 34768 ft 480 kts 93°
2026-04-27 16:54 22.93150 68.82681 34767 ft 481 kts 93°
2026-04-27 16:54 22.92713 68.89917 34769 ft 480 kts 93°
2026-04-27 16:55 22.92279 68.97146 34769 ft 480 kts 93°
2026-04-27 16:55 22.91858 69.04368 34771 ft 480 kts 93°
2026-04-27 16:56 22.91421 69.11589 34771 ft 480 kts 93°
2026-04-27 16:56 22.90972 69.18821 34772 ft 481 kts 93°
2026-04-27 16:57 22.90526 69.26054 34777 ft 481 kts 93°
2026-04-27 16:57 22.90075 69.33291 34776 ft 481 kts 93°
2026-04-27 16:58 22.89621 69.40527 34776 ft 481 kts 93°
2026-04-27 16:58 22.89163 69.47765 34775 ft 481 kts 94°
2026-04-27 16:59 22.88699 69.55012 34776 ft 481 kts 94°
2026-04-27 16:59 22.88236 69.62252 34773 ft 482 kts 93°
2026-04-27 17:00 22.87537 69.73123 34775 ft 482 kts 93°
2026-04-27 17:01 22.87131 69.80327 34772 ft 482 kts 93°
2026-04-27 17:01 22.86712 69.87621 34776 ft 482 kts 93°
2026-04-27 17:02 22.86289 69.94817 34763 ft 481 kts 93°
2026-04-27 17:02 22.85858 70.02058 34762 ft 481 kts 93°
2026-04-27 17:03 22.85424 70.09325 34759 ft 480 kts 93°
2026-04-27 17:03 22.84992 70.16493 34764 ft 480 kts 93°
2026-04-27 17:04 22.84560 70.23711 34759 ft 479 kts 93°
2026-04-27 17:04 22.84123 70.30924 34759 ft 480 kts 93°
2026-04-27 17:05 22.83678 70.38146 34760 ft 480 kts 93°
2026-04-27 17:05 22.83230 70.45365 34760 ft 480 kts 93°
2026-04-27 17:06 22.82782 70.52586 34755 ft 481 kts 94°
2026-04-27 17:06 22.82330 70.59804 34758 ft 480 kts 94°
2026-04-27 17:07 22.81872 70.67025 34753 ft 480 kts 94°
2026-04-27 17:07 22.81411 70.74242 34755 ft 480 kts 94°
2026-04-27 17:08 22.80966 70.81462 34757 ft 480 kts 92°
2026-04-27 17:08 22.81568 70.88645 34766 ft 480 kts 79°
2026-04-27 17:09 22.82668 70.95774 34757 ft 480 kts 79°
2026-04-27 17:09 22.83757 71.02913 34749 ft 480 kts 80°
2026-04-27 17:10 22.84815 71.10051 34747 ft 480 kts 80°
2026-04-27 17:10 22.85887 71.17187 34738 ft 480 kts 80°
2026-04-27 17:11 22.86946 71.24320 34738 ft 478 kts 80°
2026-04-27 17:11 22.88531 71.34988 34735 ft 478 kts 80°
2026-04-27 17:12 22.89929 71.44465 34736 ft 478 kts 80°
2026-04-27 17:13 22.90979 71.51582 34733 ft 478 kts 80°
2026-04-27 17:13 22.92024 71.58709 34730 ft 479 kts 80°
2026-04-27 17:14 22.93063 71.65839 34730 ft 479 kts 80°
2026-04-27 17:14 22.94099 71.72974 34720 ft 479 kts 80°
2026-04-27 17:15 22.95132 71.80113 34722 ft 479 kts 80°
2026-04-27 17:15 22.96162 71.87251 34714 ft 479 kts 80°
2026-04-27 17:16 22.97189 71.94401 34717 ft 479 kts 80°
2026-04-27 17:16 22.98212 72.01545 34707 ft 479 kts 80°
2026-04-27 17:17 22.99232 72.08683 34707 ft 479 kts 80°
2026-04-27 17:17 23.00632 72.15735 34702 ft 478 kts 76°
2026-04-27 17:18 23.02448 72.26391 34704 ft 479 kts 81°
2026-04-27 17:18 23.03447 72.33536 34709 ft 478 kts 81°
2026-04-27 17:19 23.04446 72.40679 34717 ft 479 kts 81°
2026-04-27 17:19 23.05448 72.47821 34723 ft 479 kts 81°
2026-04-27 17:20 23.06446 72.54963 34728 ft 478 kts 81°
2026-04-27 17:20 23.07091 72.62147 34726 ft 479 kts 93°
2026-04-27 17:21 23.06507 72.65695 34725 ft 479 kts 109°
2026-04-27 17:21 23.05379 72.69092 34734 ft 478 kts 111°
2026-04-27 17:21 23.03184 72.75884 34725 ft 477 kts 109°
2026-04-27 17:22 23.01191 72.82751 34719 ft 477 kts 108°
2026-04-27 17:22 22.99229 72.89617 34711 ft 477 kts 108°
2026-04-27 17:23 22.97258 72.96483 34709 ft 477 kts 108°
2026-04-27 17:23 22.95279 73.03355 34703 ft 477 kts 108°
2026-04-27 17:24 22.93309 73.10181 34703 ft 477 kts 108°
2026-04-27 17:24 22.91319 73.17047 34702 ft 477 kts 108°
2026-04-27 17:25 22.89321 73.23917 34706 ft 477 kts 108°
2026-04-27 17:25 22.87328 73.30784 34711 ft 478 kts 108°
2026-04-27 17:26 22.85328 73.37660 34701 ft 480 kts 108°
2026-04-27 17:26 22.83322 73.44564 34710 ft 480 kts 108°
2026-04-27 17:27 22.81309 73.51465 34716 ft 480 kts 109°
2026-04-27 17:27 22.79295 73.58355 34716 ft 480 kts 109°
2026-04-27 17:28 22.77281 73.65247 34726 ft 480 kts 109°
2026-04-27 17:29 22.74255 73.75596 34728 ft 480 kts 109°
2026-04-27 17:29 22.72226 73.82492 34739 ft 480 kts 109°
2026-04-27 17:30 22.69898 73.89261 34739 ft 480 kts 111°
2026-04-27 17:30 22.66975 73.99636 34747 ft 481 kts 105°
2026-04-27 17:31 22.65137 74.06596 34755 ft 481 kts 108°
2026-04-27 17:31 22.63108 74.13497 34755 ft 481 kts 109°
2026-04-27 17:32 22.60011 74.23851 34754 ft 482 kts 109°
2026-04-27 17:33 22.57977 74.30765 34756 ft 482 kts 109°
2026-04-27 17:33 22.55938 74.37688 34761 ft 484 kts 109°
2026-04-27 17:34 22.53886 74.44619 34759 ft 485 kts 109°
2026-04-27 17:34 22.51826 74.51567 34758 ft 485 kts 109°
2026-04-27 17:35 22.49765 74.58524 34755 ft 486 kts 109°
2026-04-27 17:35 22.47701 74.65473 34754 ft 485 kts 109°
2026-04-27 17:36 22.45634 74.72413 34757 ft 485 kts 109°
2026-04-27 17:36 22.43564 74.79355 34757 ft 485 kts 109°
2026-04-27 17:37 22.41490 74.86298 34755 ft 485 kts 109°
2026-04-27 17:37 22.39416 74.93239 34757 ft 485 kts 109°
2026-04-27 17:38 22.37319 75.00225 34748 ft 491 kts 110°
2026-04-27 17:38 22.35212 75.07223 34737 ft 491 kts 110°
2026-04-27 17:39 22.33087 75.14243 34736 ft 492 kts 110°
2026-04-27 17:39 22.30970 75.21268 34736 ft 492 kts 110°
2026-04-27 17:40 22.28851 75.28294 34727 ft 492 kts 110°
2026-04-27 17:40 22.26728 75.35313 34728 ft 492 kts 110°
2026-04-27 17:41 22.24601 75.42334 34726 ft 492 kts 110°
2026-04-27 17:41 22.22471 75.49351 34728 ft 492 kts 110°
2026-04-27 17:42 22.20337 75.56370 34727 ft 493 kts 110°
2026-04-27 17:42 22.18200 75.63396 34725 ft 492 kts 110°
2026-04-27 17:43 22.16064 75.70407 34723 ft 492 kts 110°
2026-04-27 17:43 22.13913 75.77441 34700 ft 497 kts 111°
2026-04-27 17:44 22.11720 75.84583 34715 ft 505 kts 112°
2026-04-27 17:44 22.09521 75.91802 34727 ft 506 kts 112°
2026-04-27 17:45 22.07317 75.99014 34723 ft 506 kts 112°
2026-04-27 17:45 22.04987 76.06166 34717 ft 505 kts 113°
2026-04-27 17:46 22.02633 76.13297 34713 ft 505 kts 113°
2026-04-27 17:46 22.00269 76.20449 34717 ft 508 kts 113°
2026-04-27 17:47 21.97911 76.27561 34719 ft 506 kts 113°
2026-04-27 17:47 21.95525 76.34764 34725 ft 508 kts 113°
2026-04-27 17:48 21.93169 76.41866 34718 ft 507 kts 113°
2026-04-27 17:48 21.90771 76.49065 34715 ft 506 kts 113°
2026-04-27 17:49 21.88392 76.56195 34716 ft 512 kts 113°
2026-04-27 17:49 21.85991 76.63403 34713 ft 511 kts 114°
2026-04-27 17:50 21.83586 76.70600 34719 ft 511 kts 114°
2026-04-27 17:50 21.79972 76.81403 34720 ft 511 kts 114°
2026-04-27 17:51 21.77558 76.88595 34729 ft 511 kts 114°
2026-04-27 17:51 21.75138 76.95787 34728 ft 512 kts 114°
2026-04-27 17:52 21.72717 77.02985 34732 ft 512 kts 114°
2026-04-27 17:52 21.70701 77.08965 34735 ft 511 kts 114°
2026-04-27 17:53 21.67860 77.17374 34740 ft 512 kts 114°
2026-04-27 17:53 21.65427 77.24570 34743 ft 512 kts 114°
2026-04-27 17:54 21.62990 77.31757 34747 ft 512 kts 114°
2026-04-27 17:54 21.60563 77.38965 34747 ft 513 kts 113°
2026-04-27 17:55 21.58223 77.46208 34735 ft 514 kts 113°
2026-04-27 17:55 21.55892 77.53461 34738 ft 513 kts 113°
2026-04-27 17:56 21.53953 77.59480 34737 ft 513 kts 113°
2026-04-27 17:56 21.51614 77.66731 34738 ft 513 kts 113°
2026-04-27 17:57 21.49334 77.73989 34732 ft 513 kts 112°
2026-04-27 17:57 21.47101 77.81286 34736 ft 514 kts 112°
2026-04-27 17:58 21.44848 77.88572 34735 ft 514 kts 112°
2026-04-27 17:58 21.42603 77.95844 34733 ft 513 kts 112°
2026-04-27 17:59 21.40344 78.03119 34738 ft 514 kts 112°
2026-04-27 17:59 21.38078 78.10400 34731 ft 514 kts 112°
2026-04-27 18:00 21.35804 78.17694 34729 ft 516 kts 112°
2026-04-27 18:00 21.33533 78.24990 34731 ft 516 kts 112°
2026-04-27 18:01 21.31253 78.32295 34726 ft 516 kts 112°
2026-04-27 18:01 21.28977 78.39589 34727 ft 516 kts 112°
2026-04-27 18:02 21.26693 78.46881 34721 ft 516 kts 112°
2026-04-27 18:02 21.24403 78.54170 34716 ft 516 kts 112°
2026-04-27 18:03 21.22114 78.61454 34722 ft 515 kts 112°
2026-04-27 18:03 21.19819 78.68727 34718 ft 516 kts 112°
2026-04-27 18:04 21.17519 78.76001 34721 ft 515 kts 113°
2026-04-27 18:04 21.15250 78.83234 34722 ft 516 kts 112°
2026-04-27 18:05 21.12944 78.90560 34726 ft 515 kts 112°
2026-04-27 18:05 21.10656 78.97786 34707 ft 515 kts 113°
2026-04-27 18:06 21.08355 79.05108 34703 ft 516 kts 112°
2026-04-27 18:06 21.06240 79.12472 34706 ft 518 kts 110°
2026-04-27 18:07 21.04145 79.19862 34698 ft 518 kts 110°
2026-04-27 18:07 21.02058 79.27190 34698 ft 518 kts 111°
2026-04-27 18:08 20.99952 79.34567 34696 ft 519 kts 111°
2026-04-27 18:08 20.97838 79.41947 34696 ft 518 kts 111°
2026-04-27 18:09 20.95724 79.49339 34694 ft 520 kts 110°
2026-04-27 18:09 20.93606 79.56736 34695 ft 520 kts 110°
2026-04-27 18:10 20.91472 79.64135 34689 ft 520 kts 111°
2026-04-27 18:10 20.89348 79.71530 34689 ft 520 kts 110°
2026-04-27 18:11 20.87214 79.78927 34690 ft 520 kts 111°
2026-04-27 18:11 20.85083 79.86318 34691 ft 521 kts 110°
2026-04-27 18:12 20.82950 79.93700 34680 ft 517 kts 110°
2026-04-27 18:12 20.80814 80.01024 34687 ft 516 kts 110°
2026-04-27 18:13 20.78684 80.08339 34691 ft 515 kts 110°
2026-04-27 18:13 20.76553 80.15650 34691 ft 516 kts 110°
2026-04-27 18:14 20.74424 80.22964 34696 ft 516 kts 110°
2026-04-27 18:14 20.72298 80.30281 34699 ft 516 kts 110°
2026-04-27 18:15 20.70163 80.37591 34707 ft 516 kts 110°
2026-04-27 18:15 20.68027 80.44904 34703 ft 516 kts 110°
2026-04-27 18:16 20.65887 80.52210 34713 ft 516 kts 110°
2026-04-27 18:16 20.63735 80.59528 34719 ft 518 kts 110°
2026-04-27 18:17 20.61571 80.66869 34724 ft 518 kts 110°
2026-04-27 18:17 20.59409 80.74195 34723 ft 518 kts 110°
2026-04-27 18:18 20.57248 80.81524 34728 ft 518 kts 110°
2026-04-27 18:18 20.55081 80.88846 34716 ft 515 kts 110°
2026-04-27 18:19 20.52920 80.96128 34726 ft 515 kts 110°
2026-04-27 18:19 20.50757 81.03417 34738 ft 515 kts 110°
2026-04-27 18:20 20.48597 81.10690 34745 ft 514 kts 110°
2026-04-27 18:20 20.46438 81.17955 34745 ft 514 kts 110°
2026-04-27 18:21 20.44271 81.25223 34747 ft 515 kts 110°
2026-04-27 18:21 20.42157 81.32516 34756 ft 514 kts 110°
2026-04-27 18:22 20.40067 81.39797 34751 ft 514 kts 110°
2026-04-27 18:22 20.37962 81.47068 34770 ft 514 kts 110°
2026-04-27 18:23 20.35865 81.54297 34782 ft 514 kts 110°
2026-04-27 18:23 20.33755 81.61563 34770 ft 514 kts 110°
2026-04-27 18:24 20.31640 81.68833 34776 ft 513 kts 110°
2026-04-27 18:24 20.29525 81.76098 34771 ft 513 kts 110°
2026-04-27 18:25 20.27407 81.83351 34782 ft 511 kts 109°
2026-04-27 18:25 20.25309 81.90517 34773 ft 506 kts 110°
2026-04-27 18:26 20.23215 81.97668 34773 ft 506 kts 110°
2026-04-27 18:26 20.20848 82.04709 34775 ft 504 kts 114°
2026-04-27 18:27 20.18343 82.11682 34772 ft 505 kts 114°
2026-04-27 18:27 20.15834 82.18663 34770 ft 505 kts 114°
2026-04-27 18:28 20.13330 82.25635 34773 ft 504 kts 114°
2026-04-27 18:28 20.10820 82.32604 34768 ft 504 kts 114°
2026-04-27 18:29 20.08308 82.39577 34768 ft 505 kts 114°
2026-04-27 18:29 20.05787 82.46564 34743 ft 506 kts 113°
2026-04-27 18:30 20.03262 82.53548 34749 ft 506 kts 113°
2026-04-27 18:30 20.00737 82.60538 34737 ft 507 kts 113°
2026-04-27 18:31 19.98205 82.67524 34723 ft 506 kts 113°
2026-04-27 18:31 19.95669 82.74507 34731 ft 506 kts 113°
2026-04-27 18:32 19.93129 82.81498 34721 ft 510 kts 113°
2026-04-27 18:32 19.90573 82.88528 34724 ft 510 kts 113°
2026-04-27 18:33 19.88031 82.95576 34723 ft 511 kts 112°
2026-04-27 18:33 19.85525 83.02627 34723 ft 510 kts 112°
2026-04-27 18:34 19.83013 83.09669 34723 ft 509 kts 112°
2026-04-27 18:34 19.80491 83.16712 34735 ft 511 kts 112°
2026-04-27 18:35 19.77961 83.23770 34749 ft 511 kts 113°
2026-04-27 18:35 19.75430 83.30819 34751 ft 511 kts 112°
2026-04-27 18:36 19.72899 83.37867 34750 ft 511 kts 113°
2026-04-27 18:36 19.70361 83.44919 34751 ft 512 kts 113°
2026-04-27 18:37 19.67816 83.51971 34743 ft 510 kts 113°
2026-04-27 18:37 19.65287 83.58977 34766 ft 508 kts 113°
2026-04-27 18:38 19.62757 83.65972 35028 ft 507 kts 113°
2026-04-27 18:38 19.61496 83.69462 35255 ft 507 kts 113°
2026-04-27 18:38 19.60229 83.72947 35487 ft 507 kts 114°
2026-04-27 18:39 19.58967 83.76433 35670 ft 507 kts 113°
2026-04-27 18:39 19.57705 83.79920 35828 ft 505 kts 114°
2026-04-27 18:39 19.56441 83.83411 35939 ft 508 kts 113°
2026-04-27 18:39 19.55173 83.86908 36051 ft 507 kts 114°
2026-04-27 18:40 19.53062 83.92711 36259 ft 508 kts 112°
2026-04-27 18:40 19.51791 83.96206 36406 ft 508 kts 113°
2026-04-27 18:40 19.50512 83.99702 36576 ft 509 kts 113°
2026-04-27 18:41 19.49239 84.03198 36717 ft 510 kts 113°
2026-04-27 18:41 19.47961 84.06713 36818 ft 511 kts 113°
2026-04-27 18:41 19.45400 84.13732 36787 ft 512 kts 112°
2026-04-27 18:42 19.43260 84.19577 36777 ft 511 kts 113°
2026-04-27 18:42 19.40677 84.27956 36768 ft 513 kts 108°
2026-04-27 18:43 19.38593 84.35169 36769 ft 512 kts 108°
2026-04-27 18:43 19.36496 84.42380 36752 ft 511 kts 108°
2026-04-27 18:44 19.34404 84.49550 36744 ft 510 kts 108°
2026-04-27 18:44 19.32313 84.56719 36730 ft 510 kts 108°
2026-04-27 18:45 19.30212 84.63898 36738 ft 509 kts 108°
2026-04-27 18:45 19.28117 84.71045 36733 ft 509 kts 108°
2026-04-27 18:46 19.26015 84.78215 36726 ft 508 kts 108°
2026-04-27 18:46 19.23911 84.85375 36725 ft 510 kts 108°
2026-04-27 18:47 19.21807 84.92525 36729 ft 511 kts 108°
2026-04-27 18:47 19.19698 84.99677 36725 ft 510 kts 108°
2026-04-27 18:48 19.17589 85.06820 36726 ft 510 kts 108°
2026-04-27 18:48 19.15470 85.13983 36732 ft 508 kts 108°
2026-04-27 18:49 19.13352 85.21134 36734 ft 509 kts 108°
2026-04-27 18:49 19.11188 85.28269 36734 ft 510 kts 109°
2026-04-27 18:50 19.08922 85.35308 36733 ft 510 kts 109°
2026-04-27 18:50 19.06633 85.42384 36731 ft 510 kts 110°
2026-04-27 18:51 19.04332 85.49508 36741 ft 516 kts 110°
2026-04-27 18:51 19.02010 85.56677 36743 ft 515 kts 110°
2026-04-27 18:52 18.99691 85.63836 36742 ft 515 kts 110°
2026-04-27 18:53 18.96203 85.74573 36743 ft 515 kts 110°
2026-04-27 18:53 18.93878 85.81721 36742 ft 515 kts 110°
2026-04-27 18:54 18.91562 85.88867 36749 ft 515 kts 109°
2026-04-27 18:54 18.89294 85.96034 36745 ft 515 kts 109°
2026-04-27 18:55 18.87022 86.03191 36742 ft 515 kts 109°
2026-04-27 18:55 18.84740 86.10348 36742 ft 513 kts 109°
2026-04-27 18:56 18.82452 86.17511 36748 ft 513 kts 109°
2026-04-27 18:56 18.80166 86.24665 36743 ft 514 kts 109°
2026-04-27 18:57 18.77875 86.31813 36742 ft 513 kts 109°
2026-04-27 18:57 18.75580 86.38966 36743 ft 513 kts 109°
2026-04-27 18:58 18.73287 86.46110 36744 ft 514 kts 109°
2026-04-27 18:58 18.70989 86.53252 36746 ft 515 kts 109°
2026-04-27 18:59 18.68686 86.60401 36745 ft 516 kts 109°
2026-04-27 18:59 18.66380 86.67555 36745 ft 516 kts 109°
2026-04-27 19:00 18.64067 86.74714 36747 ft 515 kts 109°
2026-04-27 19:00 18.61753 86.81867 36753 ft 514 kts 109°
2026-04-27 19:01 18.59439 86.89009 36755 ft 515 kts 110°
2026-04-27 19:01 18.57125 86.96143 36754 ft 515 kts 109°
2026-04-27 19:02 18.54802 87.03291 36748 ft 515 kts 109°
2026-04-27 19:02 18.52479 87.10434 36749 ft 515 kts 109°
2026-04-27 19:03 18.50153 87.17577 36750 ft 516 kts 109°
2026-04-27 19:03 18.47830 87.24716 36750 ft 516 kts 109°
2026-04-27 19:04 18.45499 87.31852 36751 ft 515 kts 109°
2026-04-27 19:04 18.43161 87.38987 36752 ft 515 kts 109°
2026-04-27 19:05 18.40817 87.46137 36750 ft 517 kts 109°
2026-04-27 19:05 18.38471 87.53291 36757 ft 517 kts 110°
2026-04-27 19:06 18.36121 87.60444 36756 ft 517 kts 110°
2026-04-27 19:06 18.33768 87.67589 36756 ft 518 kts 110°
2026-04-27 19:07 18.31412 87.74738 36760 ft 518 kts 110°
2026-04-27 19:07 18.29069 87.81836 36758 ft 517 kts 109°
2026-04-27 19:08 18.26748 87.88984 36756 ft 516 kts 109°
2026-04-27 19:08 18.24459 87.96146 36755 ft 516 kts 109°
2026-04-27 19:09 18.22154 88.03306 36764 ft 516 kts 109°
2026-04-27 19:09 18.19843 88.10457 36766 ft 516 kts 109°
2026-04-27 19:10 18.17531 88.17620 36764 ft 517 kts 109°
2026-04-27 19:10 18.15217 88.24776 36764 ft 517 kts 109°
2026-04-27 19:11 18.12902 88.31926 36763 ft 518 kts 109°
2026-04-27 19:11 18.10581 88.39081 36765 ft 517 kts 109°
2026-04-27 19:12 18.08257 88.46227 36754 ft 517 kts 109°
2026-04-27 19:12 18.05933 88.53375 36764 ft 515 kts 109°
2026-04-27 19:13 18.03612 88.60502 36768 ft 515 kts 109°
2026-04-27 19:13 18.01288 88.67632 36774 ft 515 kts 109°
2026-04-27 19:14 17.98967 88.74743 36773 ft 515 kts 109°
2026-04-27 19:14 17.98573 88.75947 36770 ft 515 kts 109°